Location: B�retswil
(47.3376°N, 8.8534°E)
Time: 08:16:25
(UTC+00:00)

Cosmos 2278 Rocket - Pass Details

Date: 03 March 2021
Orbit: 841 x 845 km, 71.0° (Epoch: 11 April)

Event Time Altitude Azimuth Distance (km) Brightness Sun altitude
Rises 20:24:06 0° 331° (NNW) 3,415 6.1 -32.2°
Reaches altitude 10° 20:26:34 10° 329° (NNW) 2,475 5.3 -32.6°
Enters shadow 20:30:48 50° 311° (NW) 1,069 2.9 -33.2°
